TimeCDT,TemperatureF,Dew PointF,Humidity,Sea Level PressureIn,VisibilityMPH,Wind Direction,Wind SpeedMPH,Gust SpeedMPH,PrecipitationIn,Events,Conditions,WindDirDegrees,DateUTC
12:58 AM,57.7,57.4,99,30.17,10.0,ENE,2.3,-,N/A,,Clear,60,2013-08-17 05:58:00
1:58 AM,56.7,56.7,100,30.17,10.0,East,2.3,-,N/A,,Clear,100,2013-08-17 06:58:00
2:58 AM,56.1,56.1,100,30.17,10.0,Calm,Calm,-,N/A,,Clear,0,2013-08-17 07:58:00
3:58 AM,55.2,55.2,100,30.18,10.0,Calm,Calm,-,N/A,,Clear,0,2013-08-17 08:58:00
4:58 AM,54.3,54.3,100,30.17,10.0,NNE,3.5,-,N/A,,Clear,30,2013-08-17 09:58:00
5:58 AM,54.1,54.1,100,30.18,10.0,NE,2.3,-,N/A,,Clear,50,2013-08-17 10:58:00
6:03 AM,53.6,53.6,100,30.18,6.0,Calm,Calm,-,N/A,,Clear,0,2013-08-17 11:03:00
6:13 AM,53.6,53.6,100,30.18,7.0,Calm,Calm,-,N/A,,Clear,0,2013-08-17 11:13:00
6:58 AM,54.3,54.3,100,30.19,6.0,Calm,Calm,-,N/A,,Clear,0,2013-08-17 11:58:00
7:58 AM,59.9,59.5,99,30.19,10.0,Calm,Calm,-,N/A,,Clear,0,2013-08-17 12:58:00
8:58 AM,65.5,61.9,88,30.20,10.0,East,3.5,-,N/A,,Clear,80,2013-08-17 13:58:00
9:58 AM,69.6,60.6,73,30.21,10.0,East,5.8,-,N/A,,Clear,80,2013-08-17 14:58:00
10:58 AM,72.5,59.9,64,30.21,10.0,ENE,9.2,-,N/A,,Clear,70,2013-08-17 15:58:00
11:58 AM,74.7,59.7,60,30.20,10.0,East,9.2,-,N/A,,Partly Cloudy,80,2013-08-17 16:58:00
12:58 PM,75.7,59.2,56,30.18,10.0,ENE,12.7,-,N/A,,Partly Cloudy,70,2013-08-17 17:58:00
1:58 PM,77.0,57.7,51,30.17,10.0,ENE,8.1,-,N/A,,Partly Cloudy,70,2013-08-17 18:58:00
2:58 PM,76.3,58.1,53,30.15,10.0,Variable,3.5,-,N/A,,Partly Cloudy,0,2013-08-17 19:58:00
3:58 PM,77.5,56.5,48,30.14,10.0,East,6.9,-,N/A,,Scattered Clouds,100,2013-08-17 20:58:00
4:58 PM,78.6,58.6,50,30.13,10.0,East,5.8,-,N/A,,Partly Cloudy,90,2013-08-17 21:58:00
5:58 PM,78.1,58.5,51,30.12,10.0,ENE,5.8,-,N/A,,Clear,70,2013-08-17 22:58:00
6:58 PM,75.7,59.4,57,30.11,10.0,East,4.6,-,N/A,,Clear,100,2013-08-17 23:58:00
7:58 PM,71.1,61.7,72,30.12,10.0,East,2.3,-,N/A,,Clear,90,2013-08-18 00:58:00
8:58 PM,65.7,61.0,85,30.12,10.0,East,2.3,-,N/A,,Clear,100,2013-08-18 01:58:00
9:48 PM,66.2,59.0,78,30.13,9.0,Calm,Calm,-,N/A,,Clear,0,2013-08-18 02:48:00
9:58 PM,64.4,60.4,87,30.13,8.0,East,2.3,-,N/A,,Clear,100,2013-08-18 02:58:00
10:08 PM,66.2,59.0,78,30.13,10.0,East,2.3,-,N/A,,Clear,100,2013-08-18 03:08:00
10:13 PM,66.2,59.0,78,30.13,9.0,ESE,2.3,-,N/A,,Clear,110,2013-08-18 03:13:00
10:28 PM,66.2,59.0,78,30.13,9.0,SW,1.2,-,N/A,,Clear,220,2013-08-18 03:28:00
10:58 PM,64.6,59.4,83,30.14,10.0,SSW,1.2,-,N/A,,Clear,210,2013-08-18 03:58:00
11:58 PM,61.0,60.8,99,30.14,10.0,Calm,Calm,-,N/A,,Clear,0,2013-08-18 04:58:00